CW6829 Weather Reports


time (UTC)temp
C
wind
direction
speed
KPH
gust
KPH
rain 1hr
cm
rain 24hr
cm
rain mn
cm
humidity
%
barometer
mb
20260505122020 12 0.0 0.0 0.00 0.00 0.00 86 1015.2
20260505121018 12 0.0 0.0 0.00 0.00 0.00 85 1015.2
20260505120018 12 0.0 1.6 0.00 0.00 0.00 85 1015.1
20260505115019 12 0.0 6.4 0.00 0.00 0.00 85 1015.1
20260505114019 12 0.0 8.0 0.00 0.00 0.00 85 1015.1
20260505113019 12 0.0 6.4 0.00 0.00 0.00 85 1015.1
20260505112020 12 0.0 4.8 0.00 0.00 0.00 86 1015.1
20260505111019 12 0.0 8.0 0.00 0.00 0.00 86 1015.1
20260505102021 12 0.0 3.2 0.00 0.00 0.00 87 1014.7
20260505101018 12 0.0 4.8 0.00 0.00 0.00 87 1014.7
20260505100019 11 203 1.6 14.5 0.00 0.00 0.00 88 1014.6
20260505095019 11 0.0 8.0 0.00 0.00 0.00 88 1014.5
20260505094039 11 0.0 4.8 0.00 0.00 0.00 88 1014.4
20260505093019 11 0.0 4.8 0.00 0.00 0.00 88 1014.4
20260505092118 11 0.0 0.0 0.00 0.00 0.00 89 1014.3
20260505091038 11 0.0 0.0 0.00 0.00 0.00 88 1014.3
20260505090058 11 0.0 0.0 0.00 0.00 0.00 88 1014.2
20260505085018 11 0.0 0.0 0.00 0.00 0.00 88 1014.1
20260505084018 11 0.0 0.0 0.00 0.00 0.00 87 1014.1
20260505083018 11 0.0 0.0 0.00 0.00 0.00 87 1014.1
20260505082039 11 0.0 4.8 0.00 0.00 0.00 87 1014.1
20260505081021 11 0.0 6.4 0.00 0.00 0.00 88 1014.1
20260505080040 11 0.0 6.4 0.00 0.00 0.00 88 1013.9
20260505075019 11 0.0 1.6 0.00 0.00 0.00 88 1013.9
20260505074021 10 0.0 0.0 0.00 0.00 0.00 88 1013.7
20260505073019 10 0.0 0.0 0.00 0.00 0.00 88 1013.6
20260505072042 10 0.0 0.0 0.00 0.00 0.00 87 1013.5
20260505071020 10 0.0 0.0 0.00 0.00 0.00 87 1013.4
20260505070019 11 0.0 0.0 0.00 0.00 0.00 86 1013.4
20260505065018 11 0.0 0.0 0.00 0.00 0.00 86 1013.3
20260505064040 11 0.0 0.0 0.00 0.00 0.00 86 1013.2
20260505063018 11 0.0 0.0 0.00 0.00 0.00 85 1013.0
20260505062018 11 0.0 0.0 0.00 0.00 0.00 84 1012.9
20260505061020 12 0.0 0.0 0.00 0.00 0.00 84 1012.7
20260505060020 12 0.0 0.0 0.00 0.00 0.00 83 1012.5
20260505055019 12 0.0 0.0 0.00 0.00 0.00 82 1012.4
20260505054019 12 0.0 1.6 0.00 0.00 0.00 81 1012.3
20260505053018 13 0.0 3.2 0.00 0.00 0.00 80 1012.3
20260505052020 13 0.0 3.2 0.00 0.00 0.00 79 1012.3
20260505051018 13 315 1.6 4.8 0.00 0.00 0.00 78 1012.2
20260505041020 16 0.0 0.0 0.00 0.00 0.00 69 1011.8
20260505040041 16 0.0 3.2 0.00 0.00 0.00 68 1011.5
20260505035020 17 0.0 3.2 0.00 0.00 0.00 66 1011.5
20260505034021 17 0.0 4.8 0.00 0.00 0.00 65 1011.4
20260505033020 18 0.0 3.2 0.00 0.00 0.00 63 1011.2
20260505032041 18 293 1.6 8.0 0.00 0.00 0.00 61 1011.1
20260505031020 19 0.0 3.2 0.00 0.00 0.00 60 1010.9
20260505030020 20 0.0 4.8 0.00 0.00 0.00 60 1010.8
20260505025040 20 0.0 4.8 0.00 0.00 0.00 58 1010.7
20260505024020 20 0.0 3.2 0.00 0.00 0.00 56 1010.5
20260505023021 21 248 1.6 6.4 0.00 0.00 0.00 54 1010.4
20260505022021 21 293 1.6 9.7 0.00 0.00 0.00 54 1010.4
20260505021019 22 225 1.6 11.3 0.00 0.00 0.00 52 1010.4
20260505020019 22 248 3.2 11.3 0.00 0.00 0.00 51 1010.3
20260505015019 23 248 1.6 9.7 0.00 0.00 0.00 49 1010.3
20260505014021 23 225 1.6 9.7 0.00 0.00 0.00 47 1010.3
20260505013018 24 293 3.2 9.7 0.00 0.00 0.00 46 1010.3
20260505012041 25 225 1.6 9.7 0.00 0.00 0.00 44 1010.3
20260505011039 25 225 3.2 16.1 0.00 0.00 0.00 43 1010.3
20260505010020 25 270 4.8 11.3 0.00 0.00 0.00 43 1010.4
20260505005018 25 293 1.6 9.7 0.00 0.00 0.00 44 1010.3
20260505004019 26 315 3.2 9.7 0.00 0.00 0.00 42 1010.3
20260505003018 25 225 4.8 11.3 0.00 0.00 0.00 38 1010.3
20260505002021 25 225 3.2 12.9 0.00 0.00 0.00 40 1010.3
20260505001019 26 315 3.2 16.1 0.00 0.00 0.00 41 1010.4
20260505000040 26 270 1.6 11.3 0.00 0.00 0.00 41 1010.3
20260504235039 26 315 4.8 14.5 0.00 0.00 0.00 40 1010.4
20260504234019 26 293 4.8 12.9 0.00 0.00 0.00 40 1010.3
20260504233019 26 315 4.8 16.1 0.00 0.00 0.00 42 1010.4
20260504232021 26 315 3.2 12.9 0.00 0.00 0.00 42 1010.5
20260504231020 26 293 4.8 16.1 0.00 0.00 0.00 44 1010.5
20260504230018 26 315 4.8 19.3 0.00 0.00 0.00 45 1010.6
20260504225020 26 293 3.2 14.5 0.00 0.00 0.00 48 1010.7
20260504224019 26 315 4.8 19.3 0.00 0.00 0.00 47 1010.7
20260504223020 26 338 4.8 16.1 0.00 0.00 0.00 48 1010.8
20260504222019 26 315 4.8 14.5 0.00 0.00 0.00 48 1010.9
20260504221019 26 225 4.8 16.1 0.00 0.00 0.00 46 1010.8
20260504220058 26 315 3.2 14.5 0.00 0.00 0.00 44 1011.0
20260504215019 26 338 3.2 17.7 0.00 0.00 0.00 44 1011.1
20260504214019 26 293 3.2 17.7 0.00 0.00 0.00 44 1011.0
20260504213018 26 293 1.6 14.5 0.00 0.00 0.00 46 1011.0
20260504212020 26 315 1.6 14.5 0.00 0.00 0.00 47 1011.2
20260504211020 25 315 1.6 12.9 0.00 0.00 0.00 46 1011.3
20260504210019 25 315 3.2 14.5 0.00 0.00 0.00 45 1011.3
20260504205019 25 315 1.6 11.3 0.00 0.00 0.00 45 1011.4
20260504204020 25 338 3.2 12.9 0.00 0.00 0.00 44 1011.4
20260504203018 25 315 1.6 12.9 0.00 0.00 0.00 47 1011.5
20260504202019 25 270 3.2 12.9 0.00 0.00 0.00 47 1011.5
20260504201019 25 293 3.2 12.9 0.00 0.00 0.00 45 1011.5
20260504200038 25 293 1.6 12.9 0.00 0.00 0.00 47 1011.5
20260504195018 24 315 3.2 11.3 0.00 0.00 0.00 48 1011.7
20260504194022 24 0 3.2 12.9 0.00 0.00 0.00 49 1011.7
20260504193020 23 293 3.2 14.5 0.00 0.00 0.00 50 1011.7
20260504192020 23 315 4.8 14.5 0.00 0.00 0.00 51 1011.7
20260504191100 23 315 3.2 14.5 0.00 0.00 0.00 52 1011.9
20260504190040 23 315 4.8 12.9 0.00 0.00 0.00 52 1012.0
20260504185020 23 338 1.6 9.7 0.00 0.00 0.00 53 1012.1
20260504184020 23 270 3.2 9.7 0.00 0.00 0.00 50 1012.1
20260504183020 22 315 3.2 11.3 0.00 0.00 0.00 49 1012.1
20260504182020 22 0 3.2 12.9 0.00 0.00 0.00 52 1012.1
20260504181020 22 248 1.6 9.7 0.00 0.00 0.00 50 1012.1
20260504180020 22 315 1.6 6.4 0.00 0.00 0.00 53 1012.1
20260504175021 21 293 1.6 9.7 0.00 0.00 0.00 56 1012.2
20260504174021 21 315 3.2 11.3 0.00 0.00 0.00 55 1012.1
20260504173019 21 270 1.6 11.3 0.00 0.00 0.00 56 1012.2
20260504172021 21 338 1.6 8.0 0.00 0.00 0.00 57 1012.2
20260504171019 21 338 1.6 6.4 0.00 0.00 0.00 56 1012.2
20260504151019 15 0.0 0.0 0.00 0.00 0.00 78 1011.7
20260504141020 11 0.0 0.0 0.00 0.00 0.00 90 1011.2